sat.trackr.live / text

‹ back to catalog

SAUDICOMSAT 2

NORAD 28370 · 2004-025E

PAYLOAD ACTIVE UNKNOWN

§ Identity

Operator
Country
SAUD
Launch date
2004-06-29
Launch site
TYMSC
Launch vehicle
Mass (kg)
RCS (m²)
0.06

External: N2YO · Heavens-Above · Gunter

§ Orbital elements

Epoch: 2026-05-25T00:11:22.051104Z

Period
99.31 min
Inclination
98.6645°
Eccentricity
0.0054733
Mean motion
14.49964614 rev/d
Perigee alt
686.9 km
Apogee alt
764.6 km
Semi-major
7,103.9 km
B*
7.2319e-5
RAAN
156.5980°
Arg perigee
331.0078°
Mean anomaly
28.8078°
Rev number
15,674

§ Raw data

SAUDICOMSAT 21 28370U 04025E   26145.00789411  .00000235  00000+0  72319-4 0  99942 28370  98.6645 156.5980 0054733 331.0078  28.8078 14.49964614156742

JSON: /api/v1/satellites/28370 · /tle

For live sub-satellite position, see the globe view (requires WebGL).

§ Visibility from observer

Set your observer location to see the next 7 days of passes ≥ 10°. The values pass through the URL so the page stays shareable.

No JS? Fill the form by hand. The geolocation button needs JavaScript.